• In Hungary
  • List of Countries
  • For 7 days
  • Water Temperature
  • Satellite Maps
  • Weather Map
  • News
  • Weather Widgets
  • user-avatar
    Login

    Hourly Weather Kashalya

    Today, 18 July, Wednesday

    Time Temperature Precipitation Wind Pressure Humidity
    00:00 +20°C° 0.4 mm 4 mps 731 mmHg 92%
    01:00 +19°C° 0.4 mm 4 mps 730 mmHg 91%
    02:00 +19°C° 0 mm 4 mps 730 mmHg 88%
    03:00 +19°C° 0 mm 4 mps 730 mmHg 85%
    04:00 +19°C° 0 mm 4 mps 730 mmHg 83%
    05:00 +19°C° 0.2 mm 5 mps 730 mmHg 81%
    06:00 +20°C° 0.2 mm 5 mps 730 mmHg 79%
    07:00 +20°C° 0.2 mm 5 mps 730 mmHg 78%
    08:00 +20°C° 0.3 mm 5 mps 730 mmHg 78%
    09:00 +21°C° 0.3 mm 5 mps 730 mmHg 77%
    10:00 +21°C° 0.3 mm 5 mps 730 mmHg 77%
    11:00 +22°C° 0.4 mm 5 mps 730 mmHg 78%
    12:00 +23°C° 0.4 mm 5 mps 730 mmHg 78%
    13:00 +23°C° 0.4 mm 5 mps 730 mmHg 78%
    14:00 +23°C° 0.7 mm 5 mps 730 mmHg 82%
    15:00 +22°C° 0.7 mm 5 mps 730 mmHg 86%
    16:00 +21°C° 0.7 mm 5 mps 730 mmHg 90%
    17:00 +21°C° 0.3 mm 4 mps 730 mmHg 90%
    18:00 +21°C° 0.3 mm 4 mps 730 mmHg 90%
    19:00 +21°C° 0.3 mm 3 mps 730 mmHg 89%
    20:00 +20°C° 0 mm 3 mps 730 mmHg 91%
    21:00 +19°C° 0 mm 3 mps 730 mmHg 93%
    22:00 +19°C° 0 mm 3 mps 730 mmHg 95%
    23:00 +18°C° 0.3 mm 2 mps 730 mmHg 95%

    Tomorrow, 19 July, Thursday

    Time Temperature Precipitation Wind Pressure Humidity
    00:00 +18°C° 0.3 mm 2 mps 730 mmHg 96%
    01:00 +18°C° 0.3 mm 2 mps 730 mmHg 97%
    02:00 +17°C° 0.2 mm 2 mps 730 mmHg 97%
    03:00 +17°C° 0.2 mm 2 mps 730 mmHg 97%
    04:00 +18°C° 0.2 mm 1 mps 730 mmHg 97%
    05:00 +19°C° 0.1 mm 1 mps 730 mmHg 95%
    06:00 +20°C° 0.1 mm 1 mps 730 mmHg 94%
    07:00 +20°C° 0.1 mm 1 mps 731 mmHg 93%
    08:00 +22°C° 0.2 mm 1 mps 731 mmHg 88%
    09:00 +24°C° 0.2 mm 1 mps 731 mmHg 83%
    10:00 +26°C° 0.2 mm 1 mps 731 mmHg 79%
    11:00 +27°C° 0.4 mm 1 mps 731 mmHg 72%
    12:00 +28°C° 0.4 mm 1 mps 731 mmHg 65%
    13:00 +29°C° 0.4 mm 2 mps 731 mmHg 57%
    14:00 +29°C° 0.3 mm 2 mps 731 mmHg 59%
    15:00 +29°C° 0.3 mm 2 mps 731 mmHg 60%
    16:00 +29°C° 0.3 mm 1 mps 731 mmHg 61%
    17:00 +28°C° 0.3 mm 1 mps 731 mmHg 67%
    18:00 +27°C° 0.3 mm 1 mps 731 mmHg 73%
    19:00 +24°C° 0.3 mm 0 mps 731 mmHg 79%
    20:00 +22°C° 0 mm 0 mps 731 mmHg 82%
    21:00 +20°C° 0 mm 0 mps 731 mmHg 85%
    22:00 +21°C° 0 mm 1 mps 731 mmHg 87%
    23:00 +20°C° 0 mm 1 mps 731 mmHg 88%

    Day after tomorrow, 20 July, Friday

    Time Temperature Precipitation Wind Pressure Humidity
    00:00 +20°C° 0 mm 1 mps 731 mmHg 89%
    01:00 +19°C° 0 mm 1 mps 731 mmHg 91%
    02:00 +19°C° 0 mm 1 mps 731 mmHg 91%
    03:00 +19°C° 0 mm 1 mps 731 mmHg 91%
    04:00 +18°C° 0 mm 1 mps 731 mmHg 91%
    05:00 +20°C° 0 mm 1 mps 732 mmHg 88%
    06:00 +22°C° 0 mm 1 mps 732 mmHg 85%
    07:00 +23°C° 0 mm 1 mps 732 mmHg 81%
    08:00 +25°C° 0.2 mm 1 mps 732 mmHg 75%
    09:00 +27°C° 0.2 mm 1 mps 732 mmHg 70%
    10:00 +28°C° 0.2 mm 1 mps 732 mmHg 64%
    11:00 +29°C° 0.2 mm 1 mps 732 mmHg 61%
    12:00 +30°C° 0.2 mm 1 mps 732 mmHg 58%
    13:00 +30°C° 0.2 mm 1 mps 732 mmHg 55%
    14:00 +30°C° 0.7 mm 1 mps 732 mmHg 61%
    15:00 +29°C° 0.7 mm 1 mps 732 mmHg 67%
    16:00 +28°C° 0.7 mm 1 mps 732 mmHg 73%
    17:00 +27°C° 0.3 mm 1 mps 732 mmHg 78%
    18:00 +26°C° 0.3 mm 2 mps 732 mmHg 82%
    19:00 +25°C° 0.3 mm 2 mps 732 mmHg 87%
    20:00 +23°C° 0 mm 2 mps 732 mmHg 89%
    21:00 +21°C° 0 mm 2 mps 732 mmHg 91%
    22:00 +20°C° 0 mm 2 mps 732 mmHg 93%
    23:00 +20°C° 0 mm 3 mps 732 mmHg 93%

    21 July, Saturday

    Time Temperature Precipitation Wind Pressure Humidity
    00:00 +19°C° 0 mm 3 mps 732 mmHg 94%
    01:00 +19°C° 0 mm 3 mps 732 mmHg 95%
    02:00 +19°C° 0 mm 3 mps 732 mmHg 94%
    03:00 +19°C° 0 mm 4 mps 732 mmHg 94%
    04:00 +19°C° 0 mm 4 mps 732 mmHg 93%
    05:00 +19°C° 0 mm 4 mps 732 mmHg 91%
    06:00 +20°C° 0 mm 4 mps 732 mmHg 89%
    07:00 +20°C° 0 mm 4 mps 733 mmHg 86%
    08:00 +21°C° 0 mm 5 mps 733 mmHg 84%
    09:00 +21°C° 0 mm 5 mps 733 mmHg 81%
    10:00 +21°C° 0 mm 5 mps 733 mmHg 78%
    11:00 +22°C° 0 mm 5 mps 733 mmHg 76%
    12:00 +22°C° 0 mm 5 mps 733 mmHg 74%
    13:00 +23°C° 0 mm 5 mps 733 mmHg 72%
    14:00 +23°C° 0 mm 6 mps 733 mmHg 70%
    15:00 +24°C° 0 mm 6 mps 733 mmHg 68%
    16:00 +26°C° 0 mm 6 mps 733 mmHg 66%
    17:00 +25°C° 0 mm 5 mps 733 mmHg 69%
    18:00 +25°C° 0 mm 5 mps 733 mmHg 72%
    19:00 +23°C° 0 mm 5 mps 733 mmHg 75%
    20:00 +22°C° 0 mm 5 mps 733 mmHg 76%
    21:00 +21°C° 0 mm 5 mps 733 mmHg 78%
    22:00 +21°C° 0 mm 5 mps 733 mmHg 79%
    23:00 +20°C° 0 mm 5 mps 733 mmHg 79%

    22 July, Sunday

    Time Temperature Precipitation Wind Pressure Humidity
    00:00 +20°C° 0 mm 6 mps 733 mmHg 80%
    01:00 +20°C° 0 mm 6 mps 733 mmHg 80%
    02:00 +19°C° 0 mm 6 mps 733 mmHg 80%
    03:00 +19°C° 0 mm 6 mps 733 mmHg 81%
    04:00 +19°C° 0 mm 6 mps 733 mmHg 81%
    05:00 +19°C° 0 mm 6 mps 734 mmHg 80%
    06:00 +19°C° 0 mm 6 mps 734 mmHg 79%
    07:00 +19°C° 0 mm 6 mps 734 mmHg 78%
    08:00 +20°C° 0 mm 6 mps 734 mmHg 73%
    09:00 +21°C° 0 mm 7 mps 734 mmHg 69%
    10:00 +22°C° 0 mm 7 mps 734 mmHg 65%
    11:00 +23°C° 0 mm 7 mps 734 mmHg 62%
    12:00 +24°C° 0 mm 7 mps 734 mmHg 59%
    13:00 +26°C° 0 mm 7 mps 734 mmHg 56%
    14:00 +24°C° 0 mm 6 mps 734 mmHg 55%
    15:00 +24°C° 0 mm 6 mps 734 mmHg 54%
    16:00 +24°C° 0 mm 6 mps 734 mmHg 54%
    17:00 +23°C° 0 mm 6 mps 734 mmHg 56%
    18:00 +22°C° 0 mm 5 mps 735 mmHg 59%
    19:00 +20°C° 0 mm 5 mps 735 mmHg 62%
    20:00 +19°C° 0 mm 5 mps 735 mmHg 62%
    21:00 +17°C° 0 mm 5 mps 735 mmHg 62%
    22:00 +17°C° 0 mm 5 mps 735 mmHg 62%
    23:00 +16°C° 0 mm 5 mps 735 mmHg 62%

    23 July, Monday

    Time Temperature Precipitation Wind Pressure Humidity
    00:00 +16°C° 0 mm 5 mps 735 mmHg 62%
    01:00 +15°C° 0 mm 5 mps 735 mmHg 61%
    02:00 +15°C° 0 mm 5 mps 735 mmHg 62%
    03:00 +14°C° 0 mm 5 mps 735 mmHg 63%
    04:00 +14°C° 0 mm 5 mps 735 mmHg 63%
    05:00 +14°C° 0 mm 5 mps 736 mmHg 63%
    06:00 +15°C° 0 mm 5 mps 736 mmHg 62%
    07:00 +15°C° 0 mm 5 mps 736 mmHg 62%
    08:00 +16°C° 0 mm 5 mps 736 mmHg 58%
    09:00 +19°C° 0 mm 6 mps 736 mmHg 54%
    10:00 +20°C° 0 mm 6 mps 736 mmHg 50%
    11:00 +21°C° 0 mm 6 mps 736 mmHg 48%
    12:00 +22°C° 0 mm 5 mps 736 mmHg 46%
    13:00 +23°C° 0 mm 5 mps 736 mmHg 45%
    14:00 +23°C° 0 mm 5 mps 736 mmHg 46%
    15:00 +23°C° 0 mm 5 mps 736 mmHg 47%
    16:00 +23°C° 0 mm 5 mps 736 mmHg 48%
    17:00 +22°C° 0 mm 4 mps 736 mmHg 53%
    18:00 +20°C° 0 mm 4 mps 736 mmHg 59%
    19:00 +19°C° 0 mm 3 mps 736 mmHg 65%
    20:00 +18°C° 0 mm 3 mps 736 mmHg 68%
    21:00 +16°C° 0 mm 3 mps 736 mmHg 70%
    22:00 +14°C° 0 mm 3 mps 736 mmHg 73%
    23:00 +13°C° 0 mm 3 mps 736 mmHg 75%
    Show more